User: anonymous   Login
Location: La Vergne
(36.0160°N, 86.5820°W)
Time: 03:39:16
(UTC-06:00)
Language:

Cosmos 1703 Rocket - Orbit

View from above orbital plane
View from above orbital plane
View from above satellite
View from above satellite

Ground track
Ground track

The orbit data is extracted from the following two-line orbital elements,

1 16263U 85108B   14332.36607743  .00000652  00000-0  77900-4 0  8314
2 16263 082.5050 268.2763 0020829 172.0840 307.5419 14.82562100566293
Epoch (UTC): 28 November 2014 08:47:09
Eccentricity: 0.0020829
inclination: 82.5050°
perigee height: 606 km
apogee height: 636 km
right ascension of ascending node: 268.2763°
argument of perigee: 172.0840°
revolutions per day: 14.82562100
mean anomaly at epoch: 307.5419°
orbit number at epoch: 56629

The dashed part of the orbit path shows where the satellite is in the earth's shadow,  

DLR